Weather History for KRSL - February, 2014

Change the Weather History Date:

Tuesday, February 4, 2014

  Actual Average Record
Temperature  
Mean Temperature 18 °F -  
Max Temperature 28 °F 38 °F 76 °F (1963)
Min Temperature 7 °F 17 °F -8 °F (1989)
Degree Days  
Heating Degree Days 48    
Moisture  
Dew Point 18 °F    
Average Humidity 87    
Maximum Humidity 93    
Minimum Humidity 69    
Precipitation  
Precipitation 0.10 in - - ()
Sea Level Pressure  
Sea Level Pressure 30.09 in    
Wind  
Wind Speed 15 mph (NE)    
Max Wind Speed 28 mph    
Max Gust Speed 36 mph    
Visibility 2 miles    
Events Fog , Snow    
Averages and records for this station are not official NWS values.
T = Trace of Precipitation, MM = Missing Value Source: NWS Daily Summary

Daily Weather History Graph

Daily Weather History Graph

Search for Another Location

Airport or City:

Trip Planner

Search our weather history database for the weather conditions in past years. The results will help you decide how hot, cold, wet, or windy it might be!

Date:

Astronomy

Feb. 04, 2014 Rise Set
Actual Time 7:38 AM CST 6:00 PM CST
Civil Twilight 7:10 AM CST 6:28 PM CST
Nautical Twilight 6:38 AM CST 6:59 PM CST
Astronomical Twilight 6:07 AM CST 7:31 PM CST
Moon 10:20 AM CST (2/4) 11:52 PM CST (2/4)
Length of Visible Light 11h 17m
Length of Day
10h 21m
Waxing Crescent, 29% of the Moon is Illuminated
Feb 4
Waxing Crescent
Feb 6
First Quarter
Feb 14
Full
Feb 22
Last Quarter
Mar 1
New

Hourly Weather History & Observations

Time (CST) Temp. Windchill Dew Point Humidity Pressure Visibility Wind Dir Wind Speed Gust Speed Precip Events Conditions
12:53 AM 27.0 °F 18.7 °F 18.0 °F 69% 30.12 in 10.0 mi NE 8.1 mph - N/A   Overcast
1:53 AM 28.0 °F 18.6 °F 19.9 °F 72% 30.12 in 10.0 mi East 10.4 mph - N/A   Overcast
2:24 AM 27.0 °F 16.7 °F 24.1 °F 89% 30.05 in 7.0 mi East 11.5 mph - N/A   Overcast
2:53 AM 27.0 °F 16.1 °F 25.0 °F 92% 30.12 in 4.0 mi East 12.7 mph - N/A   Overcast
3:06 AM 27.0 °F 16.7 °F 25.0 °F 92% 30.05 in 5.0 mi East 11.5 mph - N/A   Overcast
3:35 AM 27.0 °F 16.1 °F 23.0 °F 85% 30.05 in 9.0 mi East 12.7 mph - 0.00 in   Overcast
3:53 AM 27.0 °F 15.6 °F 21.9 °F 81% 30.10 in 8.0 mi East 13.8 mph - 0.00 in Snow Light Snow
4:43 AM 26.1 °F 15.0 °F 23.0 °F 88% 30.04 in 3.0 mi East 12.7 mph - 0.00 in Snow Light Snow
4:53 AM 26.1 °F 15.6 °F 23.0 °F 88% 30.10 in 3.0 mi East 11.5 mph - 0.00 in Snow Light Snow
4:55 AM 26.1 °F 15.0 °F 23.0 °F 88% 30.04 in 2.5 mi East 12.7 mph - 0.00 in Snow Light Snow
5:05 AM 26.1 °F 15.0 °F 23.0 °F 88% 30.04 in 1.2 mi East 12.7 mph - 0.00 in Snow Light Snow
5:50 AM 26.6 °F 16.2 °F 24.8 °F 93% 30.03 in 0.8 mi ENE 11.5 mph - 0.02 in Snow Light Snow
5:53 AM 26.1 °F 16.8 °F 24.1 °F 92% 30.09 in 0.8 mi ENE 9.2 mph - 0.02 in Snow Light Snow
6:02 AM 25.0 °F 14.2 °F 23.0 °F 92% 30.02 in 1.0 mi ENE 11.5 mph - 0.00 in Snow Light Snow
6:23 AM 25.0 °F 14.8 °F 23.0 °F 92% 30.01 in 1.2 mi ENE 10.4 mph - 0.00 in Snow Light Snow
6:46 AM 25.0 °F 12.6 °F 23.0 °F 92% 30.01 in 1.2 mi ENE 15.0 mph - 0.02 in Snow Light Snow
6:53 AM 25.0 °F 13.6 °F 21.9 °F 88% 30.07 in 1.0 mi ENE 12.7 mph - 0.02 in Snow Light Snow
7:07 AM 24.1 °F 13.1 °F 21.9 °F 91% 30.01 in 1.0 mi NE 11.5 mph - 0.00 in Snow Light Snow
7:23 AM 24.1 °F 11.5 °F 21.9 °F 91% 30.00 in 1.2 mi NE 15.0 mph - 0.00 in Snow Light Snow
7:31 AM 24.1 °F 12.5 °F 21.9 °F 91% 30.00 in 1.2 mi NE 12.7 mph - 0.00 in Snow Light Snow
7:53 AM 24.1 °F 12.0 °F 21.9 °F 91% 30.06 in 1.5 mi NE 13.8 mph - 0.00 in Snow Light Snow
8:10 AM 24.1 °F 12.0 °F 21.9 °F 91% 30.00 in 0.8 mi NE 13.8 mph - 0.00 in Snow Light Snow
8:53 AM 24.1 °F 12.0 °F 21.9 °F 91% 30.08 in 0.8 mi ENE 13.8 mph - 0.00 in Snow Light Snow
9:38 AM 24.1 °F 12.5 °F 21.9 °F 91% 30.02 in 0.5 mi ENE 12.7 mph - 0.02 in Fog , Snow Snow
9:53 AM 24.1 °F 13.1 °F 21.9 °F 91% 30.09 in 0.5 mi ENE 11.5 mph - 0.02 in Fog , Snow Snow
10:43 AM 24.1 °F 12.5 °F 21.9 °F 91% 30.02 in 0.5 mi NE 12.7 mph - 0.02 in Fog , Snow Snow
10:53 AM 24.1 °F 12.5 °F 21.9 °F 91% 30.09 in 0.2 mi NNE 12.7 mph - 0.02 in Fog , Snow Snow
11:39 AM 24.1 °F 12.0 °F 21.0 °F 88% 30.03 in 0.5 mi NE 13.8 mph - 0.02 in Fog , Snow Snow
11:53 AM 24.1 °F 11.0 °F 21.0 °F 88% 30.09 in 0.5 mi NE 16.1 mph 21.9 mph 0.02 in Fog , Snow Snow
12:11 PM 24.1 °F 11.0 °F 21.0 °F 88% 30.02 in 0.5 mi NE 16.1 mph - 0.00 in Fog , Snow Snow
12:53 PM 23.0 °F 8.3 °F 19.9 °F 88% 30.07 in 0.5 mi NE 19.6 mph - 0.00 in Fog , Snow Snow
1:01 PM 23.0 °F 9.2 °F 19.9 °F 88% 30.00 in 0.5 mi NE 17.3 mph - 0.00 in Fog , Snow Snow
1:10 PM 23.0 °F 7.6 °F 19.9 °F 88% 29.99 in 0.5 mi NNE 21.9 mph - 0.00 in Fog , Snow Snow
1:18 PM 23.0 °F 7.6 °F 19.9 °F 88% 29.99 in 0.5 mi NNE 21.9 mph 27.6 mph 0.00 in Fog , Snow Snow
1:38 PM 23.0 °F 8.7 °F 19.9 °F 88% 29.98 in 0.8 mi NNE 18.4 mph - 0.00 in Snow Light Snow
1:53 PM 21.9 °F 6.5 °F 19.0 °F 89% 30.05 in 0.8 mi NNE 20.7 mph 28.8 mph 0.00 in Snow Light Snow
2:05 PM 21.9 °F 6.5 °F 19.0 °F 89% 29.98 in 0.8 mi NNE 20.7 mph 28.8 mph 0.00 in Snow Light Snow
2:27 PM 21.9 °F 6.2 °F 19.0 °F 89% 29.98 in 0.5 mi NNE 21.9 mph 27.6 mph 0.00 in Fog , Snow Snow
2:53 PM 21.9 °F 6.9 °F 19.0 °F 89% 30.05 in 0.5 mi NNE 19.6 mph - 0.00 in Fog , Snow Snow
3:10 PM 21.9 °F 6.2 °F 18.0 °F 85% 29.99 in 0.5 mi NNE 21.9 mph 31.1 mph 0.00 in Fog , Snow Snow
3:26 PM 21.0 °F 3.6 °F 18.0 °F 88% 29.99 in 0.5 mi NNE 26.5 mph 34.5 mph 0.00 in Fog , Snow Snow
3:45 PM 19.9 °F 1.8 °F 17.1 °F 89% 30.01 in 0.5 mi NNE 27.6 mph 35.7 mph 0.00 in Fog , Snow Snow
3:53 PM 19.9 °F 2.2 °F 17.1 °F 89% 30.09 in 0.8 mi NNE 26.5 mph 35.7 mph 0.00 in Snow Light Snow
4:03 PM 19.9 °F 2.2 °F 16.0 °F 85% 30.01 in 0.8 mi NNE 26.5 mph 33.4 mph 0.00 in Snow Light Snow
4:53 PM 18.0 °F 1.7 °F 15.1 °F 88% 30.13 in 0.5 mi North 19.6 mph - 0.00 in Fog Light Freezing Fog
5:53 PM 15.1 °F -3.7 °F 12.0 °F 88% 30.18 in 0.5 mi North 24.2 mph 32.2 mph N/A Fog Light Freezing Fog
6:31 PM 14.0 °F -5.1 °F 10.0 °F 84% 30.12 in 1.0 mi North 24.2 mph 34.5 mph N/A   Mist
6:53 PM 12.9 °F -6.5 °F 9.0 °F 84% 30.23 in 1.5 mi North 24.2 mph 35.7 mph N/A   Overcast
7:17 PM 12.0 °F -6.9 °F 8.1 °F 84% 30.15 in 1.8 mi North 21.9 mph 33.4 mph N/A   Overcast
7:27 PM 10.9 °F -8.8 °F 7.0 °F 84% 30.16 in 1.5 mi North 23.0 mph 35.7 mph N/A   Overcast
7:44 PM 10.9 °F -9.6 °F 6.1 °F 81% 30.17 in 2.0 mi North 25.3 mph 32.2 mph N/A   Haze
7:53 PM 10.9 °F -8.8 °F 6.1 °F 81% 30.27 in 2.0 mi North 23.0 mph 32.2 mph N/A   Haze
8:17 PM 10.9 °F -7.0 °F 7.0 °F 84% 30.20 in 1.8 mi North 18.4 mph 29.9 mph N/A   Overcast
8:53 PM 9.0 °F -11.4 °F 5.0 °F 84% 30.32 in 1.2 mi North 23.0 mph 29.9 mph 0.00 in Snow Light Snow
9:53 PM 9.0 °F -10.0 °F 5.0 °F 84% 30.37 in 1.0 mi North 19.6 mph 28.8 mph 0.00 in Snow Light Snow
10:53 PM 8.1 °F -11.7 °F 3.9 °F 83% 30.42 in 1.2 mi North 20.7 mph 27.6 mph 0.00 in Snow Light Snow
11:19 PM 7.0 °F -13.1 °F 3.0 °F 84% 30.33 in 1.8 mi North 20.7 mph - 0.00 in Snow Light Snow
11:53 PM 7.0 °F -14.0 °F 1.9 °F 80% 30.45 in 1.8 mi North 23.0 mph - 0.00 in Snow Light Snow